sat.trackr.live / text

‹ back to catalog

STARLINK-35255

NORAD 65602 · 2025-207L

PAYLOAD ACTIVE UNKNOWN

§ Identity

Operator
Country
US
Launch date
2025-09-13
Launch site
AFWTR
Launch vehicle
Mass (kg)
RCS (m²)

Purposes: comms

External: N2YO · Heavens-Above · Gunter

§ Orbital elements

Epoch: 2026-09-20T22:00:03.000096Z

Period
93.91 min
Inclination
97.2854°
Eccentricity
0.0001699
Mean motion
15.33439999 rev/d
Perigee alt
464.4 km
Apogee alt
466.7 km
Semi-major
6,843.7 km
B*
-3.8181e-4
RAAN
326.5104°
Arg perigee
89.5303°
Mean anomaly
10.9998°
Rev number
574

§ Raw data

STARLINK-352551 65602U 25207L   26263.91670139 -.00012380  00000+0 -38181-3 0  99992 65602  97.2854 326.5104 0001699  89.5303  10.9998 15.33439999  5747

JSON: /api/v1/satellites/65602 · /tle

For live sub-satellite position, see the globe view (requires WebGL).

§ Visibility from observer

Set your observer location to see the next 7 days of passes ≥ 10°. The values pass through the URL so the page stays shareable.

No JS? Fill the form by hand. The geolocation button needs JavaScript.